JES3108 SULS-SABE

Flight info

Callsign JES3108
Flight time N/A
Altitude 24000
Route LUCIO A306 UGIMI UGIMI8Q
Aircraft A320/M-SDE3FGHIRWY/LB1

Departure

Time 2026-05-07 01:52
Airport Capitan Corbeta CA Curbelo International Airport (SULS)

Arrival

Time N/A
Airport Aeroparque Jorge Newbery (SABE)
Time Latitude Longitude Altitude Speed Heading
2026-05-07 01:07 -34.85978 -55.09941 100 ft 0 kts 161°
2026-05-07 01:46 -34.85988 -55.09936 99 ft 3 kts 157°
2026-05-07 01:46 -34.86005 -55.09916 100 ft 4 kts 115°
2026-05-07 01:46 -34.86001 -55.09877 100 ft 6 kts 73°
2026-05-07 01:47 -34.85985 -55.09821 100 ft 8 kts 70°
2026-05-07 01:47 -34.85934 -55.09807 100 ft 9 kts 347°
2026-05-07 01:47 -34.85866 -55.09834 100 ft 11 kts 341°
2026-05-07 01:47 -34.85786 -55.09866 100 ft 13 kts 341°
2026-05-07 01:48 -34.85695 -55.09903 101 ft 14 kts 341°
2026-05-07 01:48 -34.85669 -55.09970 102 ft 11 kts 259°
2026-05-07 01:48 -34.85688 -55.10068 100 ft 13 kts 254°
2026-05-07 01:48 -34.85718 -55.10187 100 ft 16 kts 252°
2026-05-07 01:49 -34.85754 -55.10326 101 ft 18 kts 252°
2026-05-07 01:49 -34.85793 -55.10477 99 ft 19 kts 252°
2026-05-07 01:49 -34.85837 -55.10634 101 ft 21 kts 251°
2026-05-07 01:49 -34.85879 -55.10798 101 ft 16 kts 252°
2026-05-07 01:50 -34.85918 -55.10935 99 ft 18 kts 251°
2026-05-07 01:50 -34.85962 -55.11091 100 ft 19 kts 251°
2026-05-07 01:50 -34.86005 -55.11166 100 ft 9 kts 233°
2026-05-07 01:50 -34.85988 -55.11180 102 ft 1 kts 36°
2026-05-07 01:51 -34.85982 -55.11169 101 ft 3 kts 56°
2026-05-07 01:51 -34.85977 -55.11151 101 ft 0 kts 71°
2026-05-07 01:51 -34.85971 -55.11132 102 ft 10 kts 71°
2026-05-07 01:51 -34.85865 -55.10757 101 ft 80 kts 71°
2026-05-07 01:52 -34.85637 -55.09904 106 ft 129 kts 73°
2026-05-07 01:52 -34.85354 -55.08783 483 ft 141 kts 67°
2026-05-07 01:52 -34.85071 -55.07638 1080 ft 142 kts 60°
2026-05-07 01:52 -34.84782 -55.06440 1428 ft 155 kts 54°
2026-05-07 01:53 -34.84411 -55.05126 1566 ft 174 kts 53°
2026-05-07 01:53 -34.83605 -55.04110 1750 ft 171 kts 13°
2026-05-07 01:53 -34.82379 -55.04029 1978 ft 190 kts 343°
2026-05-07 01:53 -34.81250 -55.05013 2381 ft 220 kts 307°
2026-05-07 01:54 -34.80901 -55.06914 3094 ft 248 kts 274°
2026-05-07 01:54 -34.81287 -55.09020 3971 ft 258 kts 260°
2026-05-07 01:54 -34.81943 -55.11073 4883 ft 262 kts 256°
2026-05-07 01:54 -34.82677 -55.13105 5769 ft 263 kts 256°
2026-05-07 01:55 -34.83412 -55.15153 6561 ft 266 kts 256°
2026-05-07 01:55 -34.84133 -55.17242 7352 ft 268 kts 256°
2026-05-07 01:55 -34.84831 -55.19352 8146 ft 271 kts 257°
2026-05-07 01:55 -34.85515 -55.21497 8911 ft 274 kts 257°
2026-05-07 01:56 -34.86201 -55.23693 9669 ft 279 kts 257°
2026-05-07 01:56 -34.86894 -55.25942 10129 ft 293 kts 257°
2026-05-07 01:56 -34.87629 -55.28363 10309 ft 316 kts 256°
2026-05-07 01:56 -34.88395 -55.30886 10717 ft 327 kts 256°
2026-05-07 01:57 -34.89212 -55.33545 11298 ft 331 kts 256°
2026-05-07 01:57 -34.90027 -55.36185 11939 ft 335 kts 255°
2026-05-07 01:57 -34.90847 -55.38845 12586 ft 337 kts 255°
2026-05-07 01:57 -34.91670 -55.41529 13224 ft 339 kts 255°
2026-05-07 01:58 -34.92497 -55.44235 13787 ft 342 kts 255°
2026-05-07 01:58 -34.93330 -55.46958 14358 ft 344 kts 255°
2026-05-07 01:58 -34.94150 -55.49653 14909 ft 345 kts 256°
2026-05-07 01:58 -34.94993 -55.52439 15530 ft 346 kts 256°
2026-05-07 01:59 -34.95824 -55.55185 16097 ft 348 kts 256°
2026-05-07 01:59 -34.96655 -55.57927 16661 ft 350 kts 256°
2026-05-07 01:59 -34.97514 -55.60763 17252 ft 352 kts 256°
2026-05-07 01:59 -34.98369 -55.63573 17833 ft 354 kts 256°
2026-05-07 02:00 -34.99208 -55.66332 18351 ft 356 kts 256°
2026-05-07 02:00 -35.00077 -55.69196 18854 ft 358 kts 256°
2026-05-07 02:00 -35.00944 -55.72059 19368 ft 361 kts 256°
2026-05-07 02:00 -35.01814 -55.74943 19876 ft 364 kts 256°
2026-05-07 02:01 -35.02690 -55.77853 20369 ft 366 kts 256°
2026-05-07 02:01 -35.03572 -55.80785 20854 ft 369 kts 257°
2026-05-07 02:01 -35.04454 -55.83718 21308 ft 372 kts 257°
2026-05-07 02:01 -35.05119 -55.86767 21775 ft 367 kts 266°
2026-05-07 02:02 -35.05305 -55.89850 22213 ft 363 kts 276°
2026-05-07 02:02 -35.05119 -55.92921 22651 ft 364 kts 279°
2026-05-07 02:02 -35.04903 -55.96005 23123 ft 366 kts 279°
2026-05-07 02:02 -35.04690 -55.99111 23493 ft 369 kts 279°
2026-05-07 02:03 -35.04479 -56.02236 23622 ft 369 kts 279°
2026-05-07 02:03 -35.04274 -56.05332 23656 ft 365 kts 278°
2026-05-07 02:03 -35.04070 -56.08405 23658 ft 364 kts 279°
2026-05-07 02:03 -35.03863 -56.11481 23653 ft 363 kts 279°
2026-05-07 02:04 -35.03653 -56.14562 23649 ft 363 kts 279°
2026-05-07 02:04 -35.03441 -56.17633 23659 ft 363 kts 279°
2026-05-07 02:04 -35.03225 -56.20699 23657 ft 363 kts 279°
2026-05-07 02:04 -35.03009 -56.23769 23651 ft 363 kts 279°
2026-05-07 02:05 -35.02798 -56.26793 23631 ft 363 kts 279°
2026-05-07 02:05 -35.02579 -56.29861 23657 ft 363 kts 279°
2026-05-07 02:05 -35.02357 -56.32922 23657 ft 363 kts 279°
2026-05-07 02:05 -35.02136 -56.35996 23648 ft 363 kts 279°
2026-05-07 02:06 -35.01915 -56.39112 23654 ft 363 kts 279°
2026-05-07 02:06 -35.01700 -56.42137 23644 ft 363 kts 279°
2026-05-07 02:06 -35.01477 -56.45210 23644 ft 363 kts 279°
2026-05-07 02:06 -35.01251 -56.48278 23650 ft 363 kts 279°
2026-05-07 02:07 -35.01026 -56.51348 23640 ft 363 kts 279°
2026-05-07 02:07 -35.00576 -56.57493 23635 ft 363 kts 279°
2026-05-07 02:07 -35.00353 -56.60561 23656 ft 363 kts 279°
2026-05-07 02:08 -35.00128 -56.63628 23656 ft 363 kts 279°
2026-05-07 02:08 -34.99900 -56.66699 23652 ft 363 kts 279°
2026-05-07 02:08 -34.99675 -56.69758 23649 ft 363 kts 279°
2026-05-07 02:08 -34.99447 -56.72836 23662 ft 363 kts 279°
2026-05-07 02:09 -34.99216 -56.75900 23656 ft 363 kts 279°
2026-05-07 02:09 -34.98986 -56.78965 23655 ft 363 kts 279°
2026-05-07 02:09 -34.98756 -56.82032 23652 ft 363 kts 279°
2026-05-07 02:09 -34.98524 -56.85098 23673 ft 363 kts 279°
2026-05-07 02:10 -34.98299 -56.88164 23672 ft 364 kts 278°
2026-05-07 02:10 -34.98268 -56.91261 23664 ft 366 kts 275°
2026-05-07 02:10 -34.98265 -56.94365 23662 ft 366 kts 275°
2026-05-07 02:10 -34.98258 -56.97471 23659 ft 366 kts 275°
2026-05-07 02:11 -34.98246 -57.00564 23659 ft 366 kts 275°
2026-05-07 02:11 -34.98232 -57.03678 23655 ft 366 kts 275°
2026-05-07 02:11 -34.98218 -57.06782 23640 ft 367 kts 275°
2026-05-07 02:11 -34.98204 -57.09897 23631 ft 368 kts 275°
2026-05-07 02:12 -34.98191 -57.12979 23629 ft 369 kts 275°
2026-05-07 02:12 -34.98176 -57.16144 23554 ft 368 kts 275°
2026-05-07 02:12 -34.98112 -57.19191 23196 ft 356 kts 282°
2026-05-07 02:12 -34.97563 -57.22016 22736 ft 333 kts 292°
2026-05-07 02:13 -34.96831 -57.24659 21975 ft 326 kts 292°
2026-05-07 02:13 -34.96092 -57.27250 21171 ft 321 kts 293°
2026-05-07 02:13 -34.95352 -57.29808 20361 ft 317 kts 293°
2026-05-07 02:13 -34.94620 -57.32326 19578 ft 314 kts 293°
2026-05-07 02:14 -34.93897 -57.34824 18812 ft 310 kts 293°
2026-05-07 02:14 -34.93186 -57.37295 18067 ft 307 kts 293°
2026-05-07 02:14 -34.92484 -57.39741 17273 ft 304 kts 293°
2026-05-07 02:14 -34.91794 -57.42152 16465 ft 301 kts 293°
2026-05-07 02:15 -34.91108 -57.44546 15703 ft 297 kts 293°
2026-05-07 02:15 -34.90427 -57.46913 14954 ft 294 kts 293°
2026-05-07 02:15 -34.89754 -57.49251 14240 ft 291 kts 292°
2026-05-07 02:15 -34.89085 -57.51571 13531 ft 289 kts 292°
2026-05-07 02:16 -34.88426 -57.53860 12745 ft 287 kts 292°
2026-05-07 02:16 -34.87769 -57.56140 12008 ft 284 kts 292°
2026-05-07 02:16 -34.87118 -57.58393 11315 ft 280 kts 292°
2026-05-07 02:16 -34.86478 -57.60609 10654 ft 276 kts 293°
2026-05-07 02:17 -34.85842 -57.62807 10007 ft 273 kts 293°
2026-05-07 02:17 -34.85216 -57.64965 9500 ft 265 kts 293°
2026-05-07 02:17 -34.84630 -57.67003 9245 ft 249 kts 293°
2026-05-07 02:17 -34.84064 -57.68965 8739 ft 243 kts 293°
2026-05-07 02:18 -34.83505 -57.70884 8178 ft 240 kts 293°
2026-05-07 02:18 -34.82949 -57.72789 7622 ft 237 kts 293°
2026-05-07 02:18 -34.82401 -57.74668 7082 ft 234 kts 293°
2026-05-07 02:18 -34.81859 -57.76525 6550 ft 232 kts 293°
2026-05-07 02:19 -34.81331 -57.78336 6051 ft 229 kts 293°
2026-05-07 02:19 -34.80803 -57.80146 5682 ft 225 kts 293°
2026-05-07 02:19 -34.80268 -57.81981 5626 ft 228 kts 293°
2026-05-07 02:19 -34.79742 -57.83779 5628 ft 229 kts 293°
2026-05-07 02:20 -34.79211 -57.85605 5628 ft 229 kts 293°
2026-05-07 02:20 -34.78682 -57.87429 5629 ft 229 kts 293°
2026-05-07 02:20 -34.78152 -57.89251 5618 ft 229 kts 293°
2026-05-07 02:20 -34.77616 -57.91081 5627 ft 231 kts 294°
2026-05-07 02:21 -34.77074 -57.92926 5632 ft 232 kts 293°
2026-05-07 02:21 -34.76532 -57.94777 5629 ft 233 kts 293°
2026-05-07 02:21 -34.75989 -57.96633 5634 ft 233 kts 293°
2026-05-07 02:21 -34.75445 -57.98489 5635 ft 233 kts 293°
2026-05-07 02:22 -34.74903 -58.00341 5639 ft 232 kts 293°
2026-05-07 02:22 -34.74361 -58.02193 5639 ft 233 kts 293°
2026-05-07 02:22 -34.73814 -58.04056 5636 ft 234 kts 293°
2026-05-07 02:22 -34.73269 -58.05911 5637 ft 233 kts 293°
2026-05-07 02:23 -34.72723 -58.07762 5638 ft 232 kts 293°
2026-05-07 02:23 -34.72181 -58.09607 5525 ft 233 kts 293°
2026-05-07 02:23 -34.71629 -58.11482 5019 ft 239 kts 293°
2026-05-07 02:23 -34.71057 -58.13426 4401 ft 249 kts 293°
2026-05-07 02:24 -34.70430 -58.15383 3819 ft 244 kts 301°
2026-05-07 02:24 -34.69553 -58.17048 3594 ft 224 kts 306°
2026-05-07 02:24 -34.68724 -58.18548 3471 ft 204 kts 306°
2026-05-07 02:24 -34.67973 -58.19912 3375 ft 185 kts 307°
2026-05-07 02:25 -34.67263 -58.21193 3304 ft 179 kts 304°
2026-05-07 02:25 -34.66589 -58.22406 3214 ft 170 kts 304°
2026-05-07 02:25 -34.65936 -58.23584 3133 ft 169 kts 305°
2026-05-07 02:25 -34.65275 -58.24774 3031 ft 169 kts 305°
2026-05-07 02:26 -34.64616 -58.25962 2952 ft 166 kts 306°
2026-05-07 02:26 -34.63991 -58.27090 2768 ft 157 kts 306°
2026-05-07 02:26 -34.63395 -58.28165 2568 ft 149 kts 306°
2026-05-07 02:26 -34.62828 -58.29185 2363 ft 143 kts 305°
2026-05-07 02:27 -34.62281 -58.30170 2188 ft 139 kts 304°
2026-05-07 02:27 -34.61739 -58.31144 1986 ft 139 kts 304°
2026-05-07 02:27 -34.61201 -58.32111 1780 ft 138 kts 304°
2026-05-07 02:27 -34.60672 -58.33059 1583 ft 133 kts 303°
2026-05-07 02:28 -34.60178 -58.33944 1400 ft 121 kts 301°
2026-05-07 02:28 -34.59713 -58.34777 1231 ft 119 kts 301°
2026-05-07 02:28 -34.59254 -58.35600 1063 ft 117 kts 300°
2026-05-07 02:28 -34.58789 -58.36436 901 ft 123 kts 304°
2026-05-07 02:29 -34.58302 -58.37307 746 ft 126 kts 302°
2026-05-07 02:29 -34.57820 -58.38181 569 ft 124 kts 303°
2026-05-07 02:29 -34.57332 -58.39085 330 ft 131 kts 307°
2026-05-07 02:29 -34.56815 -58.40006 204 ft 131 kts 308°
2026-05-07 02:30 -34.56298 -58.40907 44 ft 129 kts 307°
2026-05-07 02:30 -34.55744 -58.41903 275 ft 159 kts 307°
2026-05-07 02:30 -34.55293 -58.42695 468 ft 182 kts 306°